Time,TemperatureF,DewpointF,PressureIn,WindDirection,WindDirectionDegrees,WindSpeedMPH,WindSpeedGustMPH,Humidity,HourlyPrecipIn,Conditions,Clouds,dailyrainin,SoftwareType,DateUTC
2013-11-02 01:12:00,58.0,-99.9,-100.00,NE,49,5.0,5.0,-999,-99.99,,,-99.99,,2013-11-02 08:12:00,
2013-11-02 01:42:00,58.0,-99.9,-100.00,NNE,13,9.0,9.0,-999,-99.99,,,-99.99,,2013-11-02 08:42:00,
2013-11-02 01:50:00,57.0,-99.9,-100.00,South,190,4.0,6.0,-999,-99.99,,,-99.99,,2013-11-02 08:50:00,
2013-11-02 01:52:00,58.0,-99.9,-100.00,NNE,20,1.0,6.0,-999,-99.99,,,-99.99,,2013-11-02 08:52:00,
2013-11-02 02:02:00,58.0,-99.9,-100.00,NNE,20,1.0,6.0,-999,-99.99,,,-99.99,,2013-11-02 09:02:00,
2013-11-02 02:43:00,57.0,-99.9,-100.00,South,190,4.0,6.0,-999,-99.99,,,-99.99,,2013-11-02 09:43:00,
2013-11-02 03:13:00,58.0,-99.9,-100.00,SSE,162,11.0,19.0,-999,-99.99,,,-99.99,,2013-11-02 10:13:00,
2013-11-02 03:43:00,58.0,-99.9,-100.00,ENE,65,9.0,11.0,-999,-99.99,,,-99.99,,2013-11-02 10:43:00,
2013-11-02 03:53:00,58.0,-99.9,-100.00,North,10,5.0,7.0,-999,-99.99,,,-99.99,,2013-11-02 10:53:00,
2013-11-02 04:10:00,54.0,-99.9,-100.00,NNE,30,5.0,12.0,-999,-99.99,,,-99.99,,2013-11-02 11:10:00,
2013-11-02 04:12:00,58.0,-99.9,-100.00,SSE,160,8.0,8.0,-999,-99.99,,,-99.99,,2013-11-02 11:12:00,
2013-11-02 04:22:00,57.0,-99.9,-100.00,ENE,70,0.0,8.0,-999,-99.99,,,-99.99,,2013-11-02 11:22:00,
2013-11-02 04:42:00,55.0,-99.9,-100.00,SE,125,2.0,6.0,-999,-99.99,,,-99.99,,2013-11-02 11:42:00,
2013-11-02 04:52:00,54.0,-99.9,-100.00,NNE,30,5.0,12.0,-999,-99.99,,,-99.99,,2013-11-02 11:52:00,
2013-11-02 05:02:00,54.0,-99.9,-100.00,NNE,30,5.0,12.0,-999,-99.99,,,-99.99,,2013-11-02 12:02:00,
2013-11-02 05:10:00,52.0,-99.9,-100.00,NNE,28,8.0,13.0,-999,-99.99,,,-99.99,,2013-11-02 12:10:00,
2013-11-02 05:52:00,52.0,-99.9,-100.00,NNE,28,8.0,13.0,-999,-99.99,,,-99.99,,2013-11-02 12:52:00,
2013-11-02 06:02:00,52.0,-99.9,-100.00,NNE,28,8.0,13.0,-999,-99.99,,,-99.99,,2013-11-02 13:02:00,
2013-11-02 06:52:00,53.0,-99.9,-100.00,ENE,61,5.0,11.0,-999,-99.99,,,-99.99,,2013-11-02 13:52:00,
2013-11-02 07:02:00,53.0,-99.9,-100.00,ENE,61,5.0,11.0,-999,-99.99,,,-99.99,,2013-11-02 14:02:00,
2013-11-02 07:20:00,55.0,-99.9,-100.00,ENE,73,4.0,11.0,-999,-99.99,,,-99.99,,2013-11-02 14:20:00,
2013-11-02 07:42:00,54.0,-99.9,-100.00,ENE,63,4.0,14.0,-999,-99.99,,,-99.99,,2013-11-02 14:42:00,
2013-11-02 07:52:00,54.0,-99.9,-100.00,ENE,63,4.0,14.0,-999,-99.99,,,-99.99,,2013-11-02 14:52:00,
2013-11-02 08:11:00,55.0,-99.9,-100.00,ENE,73,4.0,11.0,-999,-99.99,,,-99.99,,2013-11-02 15:11:00,
2013-11-02 10:43:00,70.0,-99.9,-100.00,ESE,117,8.0,8.0,-999,-99.99,,,-99.99,,2013-11-02 17:43:00,
2013-11-02 10:53:00,70.0,-99.9,-100.00,ESE,117,8.0,8.0,-999,-99.99,,,-99.99,,2013-11-02 17:53:00,
2013-11-02 11:12:00,72.0,-99.9,-100.00,East,84,8.0,8.0,-999,-99.99,,,-99.99,,2013-11-02 18:12:00,
2013-11-02 11:22:00,73.0,-99.9,-100.00,ENE,70,5.0,12.0,-999,-99.99,,,-99.99,,2013-11-02 18:22:00,
2013-11-02 11:42:00,74.0,-99.9,-100.00,SSE,165,7.0,11.0,-999,-99.99,,,-99.99,,2013-11-02 18:42:00,
2013-11-02 12:00:00,77.0,-99.9,-100.00,SSW,207,1.0,6.0,-999,-99.99,,,-99.99,,2013-11-02 19:00:00,
2013-11-02 12:50:00,77.0,-99.9,-100.00,SSW,213,4.0,10.0,-999,-99.99,,,-99.99,,2013-11-02 19:50:00,
2013-11-02 12:52:00,77.0,-99.9,-100.00,SSW,207,1.0,6.0,-999,-99.99,,,-99.99,,2013-11-02 19:52:00,
2013-11-02 13:43:00,77.0,-99.9,-100.00,SSW,213,4.0,10.0,-999,-99.99,,,-99.99,,2013-11-02 20:43:00,
2013-11-02 15:13:00,80.0,-99.9,-100.00,SSW,203,1.0,2.0,-999,-99.99,,,-99.99,,2013-11-02 22:13:00,
2013-11-02 15:24:00,79.0,-99.9,-100.00,NNE,13,6.0,9.0,-999,-99.99,,,-99.99,,2013-11-02 22:24:00,
2013-11-02 15:44:00,79.0,-99.9,-100.00,NNW,347,4.0,4.0,-999,-99.99,,,-99.99,,2013-11-02 22:44:00,
2013-11-02 15:50:00,79.0,-99.9,-100.00,West,276,2.0,7.0,-999,-99.99,,,-99.99,,2013-11-02 22:50:00,
2013-11-02 15:54:00,80.0,-99.9,-100.00,NNW,345,3.0,6.0,-999,-99.99,,,-99.99,,2013-11-02 22:54:00,
2013-11-02 16:12:00,80.0,-99.9,-100.00,WNW,292,2.0,3.0,-999,-99.99,,,-99.99,,2013-11-02 23:12:00,
2013-11-02 16:22:00,79.0,-99.9,-100.00,West,276,6.0,7.0,-999,-99.99,,,-99.99,,2013-11-02 23:22:00,
2013-11-02 16:42:00,79.0,-99.9,-100.00,West,276,2.0,7.0,-999,-99.99,,,-99.99,,2013-11-02 23:42:00,
2013-11-02 17:12:00,79.0,-99.9,-100.00,West,276,4.0,5.0,-999,-99.99,,,-99.99,,2013-11-03 00:12:00,
2013-11-02 17:20:00,77.0,-99.9,-100.00,WNW,297,3.0,3.0,-999,-99.99,,,-99.99,,2013-11-03 00:20:00,
2013-11-02 17:22:00,79.0,-99.9,-100.00,West,267,0.0,5.0,-999,-99.99,,,-99.99,,2013-11-03 00:22:00,
2013-11-02 17:33:00,79.0,-99.9,-100.00,West,267,0.0,5.0,-999,-99.99,,,-99.99,,2013-11-03 00:33:00,
2013-11-02 17:52:00,78.0,-99.9,-100.00,NW,321,5.0,5.0,-999,-99.99,,,-99.99,,2013-11-03 00:52:00,
2013-11-02 18:11:00,77.0,-99.9,-100.00,WNW,297,3.0,3.0,-999,-99.99,,,-99.99,,2013-11-03 01:11:00,
2013-11-02 18:42:00,76.0,-99.9,-100.00,West,270,3.0,4.0,-999,-99.99,,,-99.99,,2013-11-03 01:42:00,
2013-11-02 18:52:00,76.0,-99.9,-100.00,West,270,3.0,4.0,-999,-99.99,,,-99.99,,2013-11-03 01:52:00,
2013-11-02 19:10:00,73.0,-99.9,-100.00,West,262,0.0,3.0,-999,-99.99,,,-99.99,,2013-11-03 02:10:00,
2013-11-02 19:11:00,75.0,-99.9,-100.00,NW,311,1.0,4.0,-999,-99.99,,,-99.99,,2013-11-03 02:11:00,
2013-11-02 19:22:00,75.0,-99.9,-100.00,NW,311,1.0,4.0,-999,-99.99,,,-99.99,,2013-11-03 02:22:00,
2013-11-02 19:30:00,73.0,-99.9,-100.00,SW,217,1.0,4.0,-999,-99.99,,,-99.99,,2013-11-03 02:30:00,
2013-11-02 19:43:00,74.0,-99.9,-100.00,WNW,290,1.0,3.0,-999,-99.99,,,-99.99,,2013-11-03 02:43:00,
2013-11-02 19:52:00,73.0,-99.9,-100.00,West,262,0.0,3.0,-999,-99.99,,,-99.99,,2013-11-03 02:52:00,
2013-11-02 20:02:00,73.0,-99.9,-100.00,West,262,0.0,3.0,-999,-99.99,,,-99.99,,2013-11-03 03:02:00,
2013-11-02 20:22:00,73.0,-99.9,-100.00,SW,217,1.0,4.0,-999,-99.99,,,-99.99,,2013-11-03 03:22:00,
2013-11-02 21:03:00,-999.0,-99.9,-100.00,ESE,120,0.0,4.0,-999,-99.99,,,-99.99,,2013-11-03 04:03:00,
2013-11-02 21:14:00,70.0,-99.9,-100.00,ESE,120,0.0,4.0,-999,-99.99,,,-99.99,,2013-11-03 04:14:00,
2013-11-02 21:23:00,70.0,-99.9,-100.00,ESE,120,0.0,4.0,-999,-99.99,,,-99.99,,2013-11-03 04:23:00,
2013-11-02 21:44:00,70.0,-99.9,-100.00,NNW,344,0.0,3.0,-999,-99.99,,,-99.99,,2013-11-03 04:44:00,
2013-11-02 21:53:00,70.0,-99.9,-100.00,NNW,344,0.0,3.0,-999,-99.99,,,-99.99,,2013-11-03 04:53:00,
2013-11-02 22:13:00,69.0,-99.9,-100.00,South,187,8.0,10.0,-999,-99.99,,,-99.99,,2013-11-03 05:13:00,
2013-11-02 22:20:00,68.0,-99.9,-100.00,South,178,5.0,8.0,-999,-99.99,,,-99.99,,2013-11-03 05:20:00,
2013-11-02 22:44:00,68.0,-99.9,-100.00,SSE,167,7.0,11.0,-999,-99.99,,,-99.99,,2013-11-03 05:44:00,
2013-11-02 23:13:00,68.0,-99.9,-100.00,South,178,5.0,8.0,-999,-99.99,,,-99.99,,2013-11-03 06:13:00,
2013-11-02 23:43:00,66.0,-99.9,-100.00,SSW,207,3.0,7.0,-999,-99.99,,,-99.99,,2013-11-03 06:43:00,